AFL28Y LTFM-URSS

Flight info

Callsign AFL28Y
Flight time N/A
Altitude 37000
Route EKAWE1D/35L EKAWE UT641 BIMVO UM859 RUVOM UN743 ODIRA/K0848F370 G487 DIRUN DIRUN1K
Aircraft A320/M-SDE3FGHIRWY/LB1

Departure

Time 2026-05-04 15:14
Airport İstanbul Airport (LTFM)

Arrival

Time N/A
Airport Sochi International Airport (URSS)
Time Latitude Longitude Altitude Speed Heading
2026-05-04 14:41 41.26337 28.73573 334 ft 0 kts 70°
2026-05-04 15:07 41.26337 28.73571 334 ft 2 kts 71°
2026-05-04 15:07 41.26329 28.73539 333 ft 4 kts 78°
2026-05-04 15:07 41.26326 28.73504 331 ft 4 kts 97°
2026-05-04 15:08 41.26334 28.73475 333 ft 4 kts 153°
2026-05-04 15:08 41.26338 28.73472 334 ft 0 kts 162°
2026-05-04 15:10 41.26332 28.73475 334 ft 1 kts 162°
2026-05-04 15:10 41.26323 28.73479 330 ft 3 kts 162°
2026-05-04 15:10 41.26246 28.73494 333 ft 5 kts 197°
2026-05-04 15:11 41.26226 28.73469 331 ft 3 kts 240°
2026-05-04 15:11 41.26223 28.73443 332 ft 4 kts 263°
2026-05-04 15:11 41.26217 28.73356 333 ft 12 kts 266°
2026-05-04 15:11 41.26214 28.73235 334 ft 14 kts 271°
2026-05-04 15:12 41.26217 28.73097 334 ft 16 kts 271°
2026-05-04 15:12 41.26218 28.72944 334 ft 18 kts 268°
2026-05-04 15:12 41.26212 28.72772 334 ft 20 kts 268°
2026-05-04 15:12 41.26209 28.72596 333 ft 11 kts 270°
2026-05-04 15:13 41.26244 28.72525 331 ft 9 kts 354°
2026-05-04 15:13 41.26315 28.72525 333 ft 12 kts
2026-05-04 15:13 41.26540 28.72517 333 ft 66 kts 359°
2026-05-04 15:13 41.27216 28.72503 334 ft 126 kts 359°
2026-05-04 15:14 41.28253 28.72475 428 ft 163 kts 358°
2026-05-04 15:14 41.29386 28.72462 1157 ft 163 kts 360°
2026-05-04 15:14 41.30518 28.72473 1914 ft 167 kts
2026-05-04 15:14 41.31759 28.72484 2311 ft 189 kts
2026-05-04 15:15 41.33160 28.72503 2685 ft 215 kts
2026-05-04 15:15 41.34725 28.72646 3085 ft 232 kts 13°
2026-05-04 15:15 41.36151 28.73663 3474 ft 240 kts 43°
2026-05-04 15:16 41.37768 28.77664 4253 ft 250 kts 60°
2026-05-04 15:16 41.38508 28.79771 4659 ft 252 kts 59°
2026-05-04 15:16 41.40024 28.84056 5436 ft 258 kts 59°
2026-05-04 15:17 41.40788 28.86230 5832 ft 260 kts 59°
2026-05-04 15:17 41.42338 28.90611 6615 ft 262 kts 58°
2026-05-04 15:17 41.43118 28.92801 6989 ft 262 kts 58°
2026-05-04 15:18 41.43897 28.94994 7364 ft 262 kts 58°
2026-05-04 15:18 41.44677 28.97184 7733 ft 262 kts 58°
2026-05-04 15:18 41.45454 28.99374 8124 ft 261 kts 59°
2026-05-04 15:19 41.46996 29.03746 8906 ft 260 kts 59°
2026-05-04 15:19 41.47767 29.05932 9310 ft 260 kts 59°
2026-05-04 15:19 41.49313 29.10299 10098 ft 264 kts 60°
2026-05-04 15:20 41.50132 29.12599 10476 ft 284 kts 60°
2026-05-04 15:20 41.50997 29.15037 10843 ft 294 kts 60°
2026-05-04 15:20 41.51871 29.17524 11197 ft 299 kts 61°
2026-05-04 15:21 41.53570 29.22382 10819 ft 293 kts 61°
2026-05-04 15:21 41.54431 29.24850 11145 ft 299 kts 61°
2026-05-04 15:21 41.56198 29.29918 11254 ft 302 kts 61°
2026-05-04 15:22 41.57080 29.32451 10878 ft 299 kts 61°
2026-05-04 15:22 41.57946 29.34965 10507 ft 297 kts 63°
2026-05-04 15:23 41.61284 29.47392 12255 ft 310 kts 68°